| time (UTC) | temp F | wind direction | speed knots | gust knots | rain 1hr in | rain 24hr in | rain mn in | humidity % | barometer mb |
| 20260506151006 | 54 | 143 | 2.6 | 5.2 | 0.00 | 0.00 | 0.00 | 86 | 1021.5 |
| 20260506150507 | 54 | 20 | 1.7 | 2.6 | 0.00 | 0.00 | 0.00 | 86 | 1021.5 |
| 20260506150022 | 53 | 360 | 0.0 | 4.3 | 0.00 | 0.00 | 0.00 | 87 | 1021.4 |
| 20260506145506 | 53 | 117 | 0.9 | 4.3 | 0.00 | 0.00 | 0.00 | 86 | 1021.4 |
| 20260506145008 | 53 | 264 | 0.0 | 2.6 | 0.00 | 0.00 | 0.00 | 87 | 1021.4 |
| 20260506144521 | 53 | 35 | 0.0 | 2.6 | 0.00 | 0.00 | 0.00 | 88 | 1021.4 |
| 20260506144010 | 53 | 88 | 0.0 | 3.5 | 0.00 | 0.00 | 0.00 | 88 | 1021.4 |
| 20260506143507 | 53 | 150 | 0.9 | 3.5 | 0.00 | 0.00 | 0.00 | 88 | 1021.3 |
| 20260506143024 | 53 | 144 | 0.0 | 3.5 | 0.00 | 0.00 | 0.00 | 89 | 1021.1 |
| 20260506142507 | 52 | 92 | 0.0 | 0.9 | 0.00 | 0.00 | 0.00 | 90 | 1021.1 |
| 20260506142007 | 52 | 38 | 0.0 | 1.7 | 0.00 | 0.00 | 0.00 | 90 | 1021.0 |
| 20260506141512 | 52 | 32 | 0.0 | 1.7 | 0.00 | 0.00 | 0.00 | 90 | 1021.0 |
| 20260506141003 | 52 | 57 | 0.0 | 1.7 | 0.00 | 0.00 | 0.00 | 90 | 1020.9 |
| 20260506140506 | 52 | 16 | 0.0 | 1.7 | 0.00 | 0.00 | 0.00 | 91 | 1020.9 |
| 20260506140016 | 52 | 38 | 0.0 | 1.7 | 0.00 | 0.00 | 0.00 | 91 | 1020.9 |
| 20260506135507 | 52 | 15 | 0.0 | 1.7 | 0.00 | 0.00 | 0.00 | 92 | 1020.8 |
| 20260506135011 | 52 | 15 | 0.0 | 1.7 | 0.00 | 0.00 | 0.00 | 92 | 1020.8 |
| 20260506134553 | 52 | 121 | 0.0 | 1.7 | 0.00 | 0.00 | 0.00 | 91 | 1020.8 |
| 20260506134007 | 52 | 121 | 0.0 | 1.7 | 0.00 | 0.00 | 0.00 | 91 | 1020.7 |
| 20260506133508 | 52 | 111 | 0.9 | 3.5 | 0.00 | 0.00 | 0.00 | 92 | 1020.7 |
| 20260506133023 | 52 | 141 | 2.6 | 5.2 | 0.00 | 0.00 | 0.00 | 92 | 1020.6 |
| 20260506132508 | 52 | 152 | 2.6 | 5.2 | 0.00 | 0.00 | 0.00 | 92 | 1020.5 |
| 20260506132008 | 52 | 127 | 1.7 | 3.5 | 0.00 | 0.00 | 0.00 | 93 | 1020.5 |
| 20260506131507 | 52 | 53 | 0.0 | 2.6 | 0.00 | 0.00 | 0.00 | 93 | 1020.5 |
| 20260506131003 | 52 | 94 | 1.7 | 2.6 | 0.00 | 0.00 | 0.00 | 93 | 1020.5 |
| 20260506130507 | 51 | 96 | 0.0 | 3.5 | 0.00 | 0.00 | 0.00 | 93 | 1020.4 |
| 20260506130012 | 51 | 136 | 0.9 | 5.2 | 0.00 | 0.00 | 0.00 | 94 | 1020.5 |
| 20260506125503 | 51 | 157 | 1.7 | 6.1 | 0.00 | 0.00 | 0.00 | 94 | 1020.4 |
| 20260506125006 | 51 | 138 | 2.6 | 6.1 | 0.00 | 0.00 | 0.00 | 94 | 1020.4 |
| 20260506124505 | 52 | 103 | 2.6 | 4.3 | 0.00 | 0.00 | 0.00 | 94 | 1020.3 |
| 20260506124003 | 52 | 150 | 0.9 | 2.6 | 0.00 | 0.00 | 0.00 | 94 | 1020.3 |
| 20260506123503 | 52 | 109 | 0.9 | 3.5 | 0.00 | 0.00 | 0.00 | 94 | 1020.3 |
| 20260506123003 | 52 | 165 | 0.9 | 3.5 | 0.00 | 0.00 | 0.00 | 94 | 1020.3 |
| 20260506122503 | 52 | 143 | 0.0 | 1.7 | 0.00 | 0.00 | 0.00 | 94 | 1020.3 |
| 20260506122006 | 52 | 131 | 0.0 | 1.7 | 0.00 | 0.00 | 0.00 | 94 | 1020.3 |
| 20260506121509 | 52 | 100 | 0.0 | 1.7 | 0.00 | 0.00 | 0.00 | 94 | 1020.2 |
| 20260506121003 | 51 | 99 | 0.9 | 3.5 | 0.00 | 0.00 | 0.00 | 94 | 1020.2 |
| 20260506120503 | 51 | 127 | 1.7 | 3.5 | 0.00 | 0.00 | 0.00 | 94 | 1020.1 |
| 20260506120011 | 51 | 128 | 0.0 | 2.6 | 0.00 | 0.00 | 0.00 | 94 | 1020.2 |
| 20260506115503 | 51 | 134 | 0.0 | 2.6 | 0.00 | 0.00 | 0.00 | 94 | 1020.1 |
| 20260506115004 | 51 | 23 | 0.9 | 1.7 | 0.00 | 0.00 | 0.00 | 94 | 1020.1 |
| 20260506114523 | 51 | 120 | 0.0 | 0.9 | 0.00 | 0.00 | 0.00 | 95 | 1020.0 |
| 20260506114007 | 51 | 65 | 0.0 | 1.7 | 0.00 | 0.00 | 0.00 | 95 | 1020.0 |
| 20260506113506 | 51 | 65 | 0.0 | 1.7 | 0.00 | 0.00 | 0.00 | 95 | 1020.1 |
| 20260506113006 | 51 | 58 | 0.0 | 0.9 | 0.00 | 0.00 | 0.00 | 95 | 1020.0 |
| 20260506112503 | 51 | 58 | 0.0 | 0.0 | 0.00 | 0.00 | 0.00 | 95 | 1020.0 |
| 20260506112004 | 51 | 58 | 0.0 | 0.0 | 0.00 | 0.00 | 0.00 | 95 | 1020.0 |
| 20260506111504 | 51 | 109 | 0.0 | 0.9 | 0.00 | 0.00 | 0.00 | 95 | 1020.0 |
| 20260506111004 | 51 | 115 | 0.0 | 0.9 | 0.00 | 0.00 | 0.00 | 95 | 1019.9 |
| 20260506110504 | 51 | 119 | 0.0 | 0.9 | 0.00 | 0.00 | 0.00 | 95 | 1019.9 |
| 20260506110014 | 51 | 86 | 0.0 | 0.0 | 0.00 | 0.00 | 0.00 | 95 | 1019.9 |
| 20260506105504 | 51 | 86 | 0.0 | 1.7 | 0.00 | 0.00 | 0.00 | 95 | 1019.9 |
| 20260506105003 | 51 | 117 | 0.0 | 1.7 | 0.00 | 0.00 | 0.00 | 95 | 1019.8 |
| 20260506104511 | 51 | 81 | 0.0 | 1.7 | 0.00 | 0.00 | 0.00 | 95 | 1019.7 |
| 20260506104006 | 51 | 61 | 0.0 | 1.7 | 0.00 | 0.00 | 0.00 | 95 | 1019.7 |
| 20260506103508 | 51 | 157 | 0.9 | 1.7 | 0.00 | 0.00 | 0.00 | 95 | 1019.6 |
| 20260506103023 | 51 | 132 | 0.9 | 1.7 | 0.00 | 0.00 | 0.00 | 95 | 1019.6 |
| 20260506102507 | 51 | 138 | 0.0 | 2.6 | 0.00 | 0.00 | 0.00 | 95 | 1019.5 |
| 20260506102003 | 51 | 129 | 0.9 | 2.6 | 0.00 | 0.00 | 0.00 | 95 | 1019.5 |
| 20260506101504 | 51 | 101 | 1.7 | 2.6 | 0.00 | 0.00 | 0.00 | 95 | 1019.5 |
| 20260506101003 | 51 | 130 | 0.9 | 1.7 | 0.00 | 0.00 | 0.00 | 95 | 1019.4 |
| 20260506100503 | 51 | 144 | 0.0 | 1.7 | 0.00 | 0.00 | 0.00 | 95 | 1019.3 |
| 20260506100007 | 51 | 148 | 0.0 | 1.7 | 0.00 | 0.00 | 0.00 | 95 | 1019.3 |
| 20260506095503 | 51 | 142 | 0.0 | 0.0 | 0.00 | 0.00 | 0.00 | 95 | 1019.4 |
| 20260506095004 | 51 | 142 | 0.0 | 0.0 | 0.00 | 0.00 | 0.00 | 95 | 1019.3 |
| 20260506094516 | 51 | 142 | 0.0 | 0.0 | 0.00 | 0.00 | 0.00 | 95 | 1019.3 |
| 20260506094004 | 51 | 142 | 0.0 | 0.0 | 0.00 | 0.00 | 0.00 | 95 | 1019.4 |
| 20260506093504 | 51 | 142 | 0.0 | 0.0 | 0.00 | 0.00 | 0.00 | 95 | 1019.3 |
| 20260506093016 | 51 | 142 | 0.0 | 0.0 | 0.00 | 0.00 | 0.00 | 95 | 1019.3 |
| 20260506092512 | 51 | 142 | 0.0 | 1.7 | 0.00 | 0.00 | 0.00 | 95 | 1019.3 |
| 20260506092007 | 51 | 142 | 0.0 | 1.7 | 0.00 | 0.00 | 0.00 | 95 | 1019.4 |
| 20260506091520 | 50 | 142 | 0.0 | 1.7 | 0.00 | 0.00 | 0.00 | 95 | 1019.4 |
| 20260506091007 | 50 | 142 | 0.0 | 1.7 | 0.00 | 0.00 | 0.00 | 95 | 1019.5 |
| 20260506090503 | 50 | 138 | 0.0 | 0.9 | 0.00 | 0.00 | 0.00 | 95 | 1019.5 |
| 20260506090005 | 50 | 159 | 0.0 | 0.0 | 0.00 | 0.00 | 0.00 | 95 | 1019.5 |
| 20260506085503 | 50 | 159 | 0.0 | 1.7 | 0.00 | 0.00 | 0.00 | 95 | 1019.4 |
| 20260506085003 | 50 | 159 | 0.0 | 1.7 | 0.00 | 0.00 | 0.00 | 95 | 1019.4 |
| 20260506084512 | 50 | 159 | 0.0 | 1.7 | 0.00 | 0.00 | 0.00 | 95 | 1019.5 |
| 20260506084003 | 50 | 159 | 0.0 | 1.7 | 0.00 | 0.00 | 0.00 | 95 | 1019.5 |
| 20260506083504 | 50 | 171 | 0.0 | 0.0 | 0.00 | 0.00 | 0.00 | 95 | 1019.5 |
| 20260506083015 | 50 | 252 | 0.0 | 0.0 | 0.00 | 0.00 | 0.00 | 95 | 1019.5 |
| 20260506082503 | 50 | 252 | 0.0 | 0.0 | 0.00 | 0.00 | 0.00 | 95 | 1019.5 |
| 20260506082007 | 50 | 252 | 0.0 | 0.0 | 0.00 | 0.00 | 0.00 | 95 | 1019.5 |
| 20260506081523 | 50 | 252 | 0.0 | 0.0 | 0.00 | 0.00 | 0.00 | 94 | 1019.5 |
| 20260506081009 | 50 | 252 | 0.0 | 0.0 | 0.00 | 0.00 | 0.00 | 94 | 1019.5 |
| 20260506080507 | 50 | 252 | 0.0 | 1.7 | 0.00 | 0.00 | 0.00 | 94 | 1019.5 |
| 20260506073506 | 50 | 317 | 0.0 | 0.0 | 0.00 | 0.00 | 0.00 | 94 | 1019.2 |
| 20260506073013 | 50 | 317 | 0.0 | 0.0 | 0.00 | 0.00 | 0.00 | 94 | 1019.2 |
| 20260506072503 | 50 | 317 | 0.0 | 0.0 | 0.00 | 0.00 | 0.00 | 94 | 1019.2 |
| 20260506072008 | 50 | 317 | 0.0 | 1.7 | 0.00 | 0.00 | 0.00 | 94 | 1019.1 |
| 20260506071517 | 50 | 317 | 0.0 | 1.7 | 0.00 | 0.00 | 0.00 | 94 | 1019.1 |
| 20260506071008 | 50 | 320 | 0.0 | 1.7 | 0.00 | 0.00 | 0.00 | 94 | 1018.9 |
| 20260506070507 | 50 | 321 | 0.0 | 1.7 | 0.00 | 0.00 | 0.00 | 94 | 1018.8 |
| 20260506062505 | 50 | 321 | 0.9 | 2.6 | 0.00 | 0.00 | 0.00 | 93 | 1018.6 |
| 20260506062007 | 50 | 318 | 0.0 | 2.6 | 0.00 | 0.00 | 0.00 | 93 | 1018.5 |
| 20260506061518 | 50 | 308 | 0.9 | 2.6 | 0.00 | 0.00 | 0.00 | 93 | 1018.5 |
| 20260506061009 | 50 | 319 | 0.9 | 2.6 | 0.00 | 0.00 | 0.00 | 93 | 1018.4 |
| 20260506060509 | 50 | 323 | 0.9 | 2.6 | 0.00 | 0.00 | 0.00 | 93 | 1018.5 |
| 20260506051009 | 51 | 323 | 1.7 | 2.6 | 0.00 | 0.00 | 0.00 | 92 | 1018.1 |
| 20260506050508 | 51 | 305 | 1.7 | 2.6 | 0.00 | 0.00 | 0.00 | 92 | 1018.0 |
| 20260506045011 | 51 | 352 | 0.9 | 2.6 | 0.00 | 0.00 | 0.00 | 92 | 1017.9 |
| 20260506044520 | 51 | 336 | 1.7 | 2.6 | 0.00 | 0.00 | 0.00 | 92 | 1017.9 |
| 20260506044013 | 51 | 323 | 1.7 | 2.6 | 0.00 | 0.00 | 0.00 | 92 | 1017.9 |
| 20260506043511 | 51 | 352 | 1.7 | 2.6 | 0.00 | 0.00 | 0.00 | 91 | 1017.8 |
| 20260506043021 | 51 | 336 | 1.7 | 2.6 | 0.00 | 0.00 | 0.00 | 91 | 1017.7 |
| 20260506042507 | 51 | 352 | 1.7 | 2.6 | 0.00 | 0.00 | 0.00 | 91 | 1017.6 |
| 20260506042012 | 51 | 344 | 1.7 | 4.3 | 0.00 | 0.00 | 0.00 | 91 | 1017.5 |
| 20260506041534 | 51 | 295 | 2.6 | 4.3 | 0.00 | 0.00 | 0.00 | 91 | 1017.5 |
| 20260506041003 | 52 | 290 | 2.6 | 4.3 | 0.00 | 0.00 | 0.00 | 91 | 1017.5 |
| 20260506040508 | 52 | 314 | 1.7 | 4.3 | 0.00 | 0.00 | 0.00 | 91 | 1017.3 |
| 20260506040021 | 52 | 320 | 1.7 | 4.3 | 0.00 | 0.00 | 0.00 | 91 | 1017.2 |
| 20260506035504 | 52 | 341 | 1.7 | 4.3 | 0.00 | 0.00 | 0.00 | 91 | 1017.1 |
| 20260506035008 | 52 | 323 | 0.9 | 6.1 | 0.00 | 0.00 | 0.00 | 91 | 1017.1 |
| 20260506034518 | 52 | 352 | 2.6 | 4.3 | 0.00 | 0.00 | 0.00 | 90 | 1017.0 |
| 20260506034010 | 52 | 313 | 1.7 | 3.5 | 0.00 | 0.00 | 0.00 | 90 | 1017.0 |
| 20260506033509 | 52 | 299 | 1.7 | 4.3 | 0.00 | 0.00 | 0.00 | 90 | 1016.8 |
| 20260506033027 | 52 | 327 | 1.7 | 4.3 | 0.00 | 0.00 | 0.00 | 90 | 1016.8 |
| 20260506032503 | 52 | 286 | 1.7 | 2.6 | 0.00 | 0.00 | 0.00 | 90 | 1016.9 |
| 20260506032004 | 52 | 324 | 0.0 | 4.3 | 0.00 | 0.00 | 0.00 | 90 | 1016.7 |
| 20260506031508 | 52 | 352 | 0.9 | 6.1 | 0.00 | 0.00 | 0.00 | 90 | 1016.5 |
| 20260506031003 | 52 | 305 | 2.6 | 7.0 | 0.00 | 0.00 | 0.00 | 90 | 1016.5 |
| 20260506030504 | 52 | 345 | 2.6 | 7.0 | 0.00 | 0.00 | 0.00 | 90 | 1016.3 |
| 20260506030013 | 52 | 298 | 2.6 | 7.0 | 0.00 | 0.00 | 0.00 | 90 | 1016.2 |
| 20260506025508 | 52 | 337 | 4.3 | 8.7 | 0.00 | 0.00 | 0.00 | 89 | 1016.2 |
| 20260506025006 | 53 | 337 | 6.1 | 8.7 | 0.00 | 0.00 | 0.00 | 89 | 1016.2 |
| 20260506024510 | 53 | 313 | 4.3 | 7.8 | 0.00 | 0.00 | 0.00 | 88 | 1016.1 |
| 20260506024003 | 53 | 298 | 5.2 | 7.8 | 0.00 | 0.00 | 0.00 | 88 | 1016.0 |
| 20260506023503 | 53 | 320 | 5.2 | 9.6 | 0.00 | 0.00 | 0.00 | 88 | 1016.0 |
| 20260506023003 | 53 | 326 | 5.2 | 9.6 | 0.00 | 0.00 | 0.00 | 87 | 1015.9 |
| 20260506022502 | 54 | 294 | 5.2 | 7.8 | 0.00 | 0.00 | 0.00 | 87 | 1015.9 |
| 20260506022003 | 54 | 346 | 3.5 | 7.8 | 0.00 | 0.00 | 0.00 | 86 | 1015.9 |
| 20260506021509 | 54 | 313 | 3.5 | 7.8 | 0.00 | 0.00 | 0.00 | 86 | 1015.9 |
| 20260506021004 | 54 | 300 | 3.5 | 7.8 | 0.00 | 0.01 | 0.00 | 85 | 1015.9 |
| 20260506020502 | 55 | 347 | 4.3 | 7.8 | 0.00 | 0.01 | 0.00 | 85 | 1015.8 |
| 20260506020007 | 55 | 328 | 3.5 | 7.8 | 0.00 | 0.01 | 0.00 | 85 | 1015.8 |
| 20260506015506 | 55 | 313 | 5.2 | 7.8 | 0.00 | 0.01 | 0.00 | 84 | 1015.7 |
| 20260506015004 | 55 | 310 | 3.5 | 7.0 | 0.00 | 0.01 | 0.00 | 84 | 1015.7 |
| 20260506014515 | 55 | 320 | 3.5 | 8.7 | 0.00 | 0.01 | 0.00 | 84 | 1015.7 |
| 20260506014004 | 56 | 334 | 4.3 | 8.7 | 0.00 | 0.01 | 0.00 | 83 | 1015.6 |
| 20260506013507 | 56 | 360 | 3.5 | 7.8 | 0.00 | 0.01 | 0.00 | 83 | 1015.6 |
| 20260506013004 | 56 | 321 | 3.5 | 8.7 | 0.00 | 0.01 | 0.00 | 82 | 1015.5 |
| 20260506012502 | 56 | 338 | 5.2 | 8.7 | 0.00 | 0.01 | 0.00 | 82 | 1015.5 |
| 20260506012002 | 57 | 299 | 4.3 | 7.0 | 0.00 | 0.01 | 0.00 | 81 | 1015.5 |
| 20260506011503 | 57 | 266 | 1.7 | 9.6 | 0.00 | 0.01 | 0.00 | 80 | 1015.5 |
| 20260506011003 | 57 | 338 | 3.5 | 9.6 | 0.00 | 0.01 | 0.00 | 81 | 1015.5 |
| 20260506010506 | 58 | 315 | 4.3 | 8.7 | 0.00 | 0.01 | 0.00 | 80 | 1015.4 |
| 20260506010007 | 58 | 309 | 3.5 | 7.0 | 0.00 | 0.01 | 0.00 | 79 | 1015.5 |
| 20260506005503 | 58 | 300 | 2.6 | 6.1 | 0.00 | 0.01 | 0.00 | 79 | 1015.5 |
| 20260506005003 | 58 | 307 | 1.7 | 7.8 | 0.00 | 0.01 | 0.00 | 80 | 1015.5 |
| 20260506004510 | 58 | 298 | 2.6 | 8.7 | 0.00 | 0.01 | 0.00 | 79 | 1015.4 |
| 20260506004006 | 58 | 352 | 3.5 | 8.7 | 0.00 | 0.01 | 0.00 | 79 | 1015.4 |
| 20260506003507 | 58 | 290 | 4.3 | 8.7 | 0.00 | 0.01 | 0.00 | 78 | 1015.5 |
| 20260506003019 | 59 | 321 | 3.5 | 8.7 | 0.00 | 0.01 | 0.00 | 78 | 1015.5 |
| 20260506002509 | 59 | 315 | 2.6 | 7.0 | 0.00 | 0.01 | 0.00 | 79 | 1015.5 |
| 20260506002002 | 59 | 9 | 1.7 | 7.0 | 0.00 | 0.01 | 0.00 | 78 | 1015.4 |
| 20260506001505 | 59 | 67 | 1.7 | 7.0 | 0.00 | 0.01 | 0.00 | 77 | 1015.4 |
| 20260506001004 | 59 | 333 | 3.5 | 6.1 | 0.00 | 0.01 | 0.00 | 76 | 1015.4 |
| 20260506000506 | 60 | 295 | 2.6 | 5.2 | 0.00 | 0.01 | 0.00 | 76 | 1015.4 |
| 20260506000004 | 60 | 335 | 1.7 | 7.8 | 0.00 | 0.01 | 0.00 | 77 | 1015.4 |
| 20260505235504 | 60 | 149 | 2.6 | 7.8 | 0.00 | 0.01 | 0.00 | 77 | 1015.3 |
| 20260505235003 | 60 | 248 | 1.7 | 6.1 | 0.00 | 0.01 | 0.00 | 76 | 1015.3 |
| 20260505234515 | 60 | 268 | 1.7 | 6.1 | 0.00 | 0.01 | 0.00 | 76 | 1015.3 |
| 20260505234005 | 60 | 15 | 2.6 | 7.0 | 0.00 | 0.01 | 0.00 | 77 | 1015.3 |
| 20260505233504 | 60 | 313 | 3.5 | 7.0 | 0.00 | 0.01 | 0.00 | 76 | 1015.3 |
| 20260505233016 | 60 | 360 | 1.7 | 7.0 | 0.00 | 0.01 | 0.00 | 76 | 1015.3 |
| 20260505232509 | 59 | 348 | 0.9 | 5.2 | 0.00 | 0.01 | 0.00 | 75 | 1015.4 |
| 20260505232009 | 59 | 352 | 2.6 | 9.6 | 0.00 | 0.01 | 0.00 | 76 | 1015.4 |
| 20260505231520 | 60 | 343 | 5.2 | 9.6 | 0.00 | 0.01 | 0.00 | 75 | 1015.5 |
| 20260505231007 | 60 | 279 | 0.9 | 6.1 | 0.00 | 0.01 | 0.00 | 75 | 1015.4 |
| 20260505230502 | 60 | 193 | 3.5 | 8.7 | 0.00 | 0.01 | 0.00 | 74 | 1015.4 |
| 20260505230009 | 60 | 286 | 3.5 | 8.7 | 0.00 | 0.01 | 0.00 | 76 | 1015.4 |
| 20260505225505 | 61 | 325 | 2.6 | 6.1 | 0.00 | 0.01 | 0.00 | 75 | 1015.5 |
| 20260505225003 | 60 | 55 | 1.7 | 6.1 | 0.00 | 0.01 | 0.00 | 77 | 1015.5 |
| 20260505224508 | 60 | 304 | 1.7 | 8.7 | 0.00 | 0.01 | 0.00 | 76 | 1015.5 |
| 20260505224004 | 60 | 288 | 4.3 | 8.7 | 0.00 | 0.01 | 0.00 | 76 | 1015.6 |
| 20260505223506 | 60 | 301 | 2.6 | 8.7 | 0.00 | 0.01 | 0.00 | 76 | 1015.5 |
| 20260505223016 | 59 | 308 | 1.7 | 6.1 | 0.00 | 0.01 | 0.00 | 78 | 1015.7 |
| 20260505222508 | 59 | 284 | 1.7 | 5.2 | 0.00 | 0.01 | 0.00 | 78 | 1015.8 |
| 20260505222005 | 59 | 193 | 1.7 | 4.3 | 0.00 | 0.02 | 0.00 | 79 | 1015.8 |
| 20260505221517 | 58 | 195 | 0.0 | 7.0 | 0.00 | 0.02 | 0.00 | 80 | 1015.9 |
| 20260505221007 | 58 | 232 | 2.6 | 7.0 | 0.00 | 0.02 | 0.00 | 80 | 1015.8 |
| 20260505220506 | 58 | 157 | 3.5 | 7.0 | 0.00 | 0.02 | 0.00 | 80 | 1015.8 |
| 20260505220022 | 58 | 166 | 4.3 | 7.0 | 0.00 | 0.02 | 0.00 | 80 | 1015.9 |
| 20260505215503 | 57 | 144 | 3.5 | 5.2 | 0.00 | 0.02 | 0.00 | 82 | 1015.9 |
| 20260505215006 | 57 | 172 | 3.5 | 6.1 | 0.00 | 0.02 | 0.00 | 82 | 1016.1 |
| 20260505214509 | 57 | 158 | 2.6 | 6.1 | 0.00 | 0.02 | 0.00 | 82 | 1016.1 |
| 20260505214007 | 57 | 161 | 2.6 | 6.1 | 0.00 | 0.02 | 0.00 | 81 | 1016.1 |
| 20260505213506 | 57 | 182 | 4.3 | 6.1 | 0.00 | 0.02 | 0.00 | 83 | 1016.1 |
| 20260505213007 | 56 | 155 | 2.6 | 5.2 | 0.00 | 0.02 | 0.00 | 83 | 1016.1 |
| 20260505212506 | 56 | 133 | 2.6 | 7.0 | 0.00 | 0.02 | 0.00 | 82 | 1016.2 |
| 20260505212011 | 56 | 119 | 2.6 | 7.0 | 0.00 | 0.02 | 0.00 | 82 | 1016.2 |
| 20260505211524 | 56 | 140 | 4.3 | 7.0 | 0.00 | 0.03 | 0.00 | 83 | 1016.1 |
| 20260505211007 | 56 | 146 | 4.3 | 6.1 | 0.00 | 0.03 | 0.00 | 82 | 1016.2 |
| 20260505210506 | 56 | 155 | 1.7 | 7.0 | 0.00 | 0.04 | 0.00 | 83 | 1016.2 |
| 20260505210023 | 56 | 146 | 4.3 | 7.0 | 0.00 | 0.05 | 0.00 | 82 | 1016.3 |
| 20260505205506 | 56 | 156 | 4.3 | 6.1 | 0.00 | 0.06 | 0.00 | 82 | 1016.2 |
| 20260505205011 | 56 | 144 | 1.7 | 6.1 | 0.00 | 0.08 | 0.00 | 82 | 1016.2 |
| 20260505204528 | 56 | 136 | 4.3 | 7.8 | 0.00 | 0.09 | 0.00 | 82 | 1016.1 |
| 20260505204004 | 56 | 138 | 3.5 | 7.8 | 0.00 | 0.11 | 0.00 | 81 | 1016.2 |
| 20260505203504 | 57 | 129 | 0.9 | 5.2 | 0.00 | 0.13 | 0.00 | 80 | 1016.1 |
| 20260505203009 | 57 | 190 | 0.9 | 6.1 | 0.00 | 0.17 | 0.00 | 80 | 1016.2 |
| 20260505202505 | 57 | 262 | 0.9 | 6.1 | 0.00 | 0.17 | 0.00 | 81 | 1016.2 |
| 20260505202007 | 56 | 217 | 0.0 | 5.2 | 0.00 | 0.17 | 0.00 | 81 | 1016.1 |
| 20260505201511 | 56 | 101 | 1.7 | 6.1 | 0.00 | 0.17 | 0.00 | 81 | 1016.1 |
| 20260505201007 | 57 | 127 | 4.3 | 7.0 | 0.00 | 0.17 | 0.00 | 80 | 1016.1 |
| 20260505200507 | 57 | 101 | 0.9 | 7.0 | 0.00 | 0.17 | 0.00 | 81 | 1016.1 |
| 20260505200022 | 57 | 109 | 5.2 | 7.0 | 0.00 | 0.17 | 0.00 | 79 | 1016.1 |
| 20260505195506 | 57 | 121 | 5.2 | 7.0 | 0.00 | 0.17 | 0.00 | 79 | 1016.1 |
| 20260505195010 | 58 | 178 | 3.5 | 5.2 | 0.00 | 0.17 | 0.00 | 78 | 1016.1 |
| 20260505194528 | 58 | 261 | 0.9 | 3.5 | 0.00 | 0.17 | 0.00 | 78 | 1016.1 |
| 20260505194007 | 58 | 286 | 0.9 | 6.1 | 0.00 | 0.17 | 0.00 | 78 | 1016.1 |
| 20260505193509 | 58 | 250 | 1.7 | 6.1 | 0.00 | 0.17 | 0.00 | 79 | 1016.1 |
| 20260505193009 | 58 | 311 | 0.9 | 2.6 | 0.00 | 0.17 | 0.00 | 78 | 1016.1 |
| 20260505192504 | 58 | 113 | 0.9 | 4.3 | 0.00 | 0.17 | 0.00 | 76 | 1016.1 |
| 20260505192005 | 58 | 90 | 1.7 | 5.2 | 0.00 | 0.17 | 0.00 | 76 | 1016.0 |
| 20260505191512 | 58 | 163 | 2.6 | 5.2 | 0.00 | 0.17 | 0.00 | 78 | 1016.0 |
| 20260505191006 | 58 | 144 | 3.5 | 5.2 | 0.00 | 0.17 | 0.00 | 77 | 1016.1 |
| 20260505190505 | 57 | 165 | 0.0 | 5.2 | 0.00 | 0.17 | 0.00 | 76 | 1016.1 |
| 20260505190014 | 57 | 83 | 0.9 | 6.1 | 0.00 | 0.17 | 0.00 | 77 | 1016.0 |
| 20260505185508 | 56 | 76 | 0.9 | 6.1 | 0.00 | 0.17 | 0.00 | 78 | 1016.0 |
| 20260505185009 | 56 | 130 | 2.6 | 7.0 | 0.00 | 0.17 | 0.00 | 76 | 1016.0 |
| 20260505184525 | 56 | 77 | 2.6 | 7.8 | 0.00 | 0.17 | 0.00 | 78 | 1016.0 |
| 20260505184008 | 57 | 73 | 4.3 | 7.8 | 0.00 | 0.17 | 0.00 | 77 | 1016.1 |
| 20260505183508 | 57 | 65 | 3.5 | 7.0 | 0.00 | 0.17 | 0.00 | 79 | 1016.1 |
| 20260505183026 | 57 | 86 | 4.3 | 7.0 | 0.00 | 0.17 | 0.00 | 78 | 1016.2 |
| 20260505182507 | 56 | 86 | 1.7 | 7.8 | 0.00 | 0.17 | 0.00 | 78 | 1016.1 |
| 20260505182012 | 56 | 60 | 3.5 | 7.8 | 0.00 | 0.17 | 0.00 | 79 | 1016.0 |
| 20260505181509 | 56 | 82 | 2.6 | 7.8 | 0.00 | 0.17 | 0.00 | 79 | 1015.9 |
| 20260505181005 | 56 | 33 | 1.7 | 7.8 | 0.00 | 0.17 | 0.00 | 82 | 1015.9 |
| 20260505180507 | 55 | 86 | 3.5 | 7.8 | 0.00 | 0.17 | 0.00 | 81 | 1015.9 |
| 20260505180003 | 55 | 21 | 4.3 | 7.8 | 0.00 | 0.17 | 0.00 | 80 | 1015.9 |
| 20260505175503 | 55 | 62 | 1.7 | 6.1 | 0.00 | 0.17 | 0.00 | 82 | 1015.8 |
| 20260505175005 | 55 | 109 | 3.5 | 7.8 | 0.00 | 0.17 | 0.00 | 81 | 1015.8 |
| 20260505174503 | 54 | 69 | 4.3 | 7.0 | 0.00 | 0.17 | 0.00 | 84 | 1015.7 |
| 20260505174003 | 53 | 160 | 0.9 | 4.3 | 0.00 | 0.17 | 0.00 | 85 | 1015.6 |
| 20260505173507 | 52 | 167 | 0.9 | 3.5 | 0.00 | 0.17 | 0.00 | 86 | 1015.6 |
| 20260505173006 | 52 | 250 | 0.9 | 3.5 | 0.00 | 0.17 | 0.00 | 87 | 1015.5 |
| 20260505172503 | 51 | 158 | 0.9 | 3.5 | 0.00 | 0.17 | 0.00 | 86 | 1015.5 |
| 20260505172003 | 51 | 122 | 0.9 | 2.6 | 0.00 | 0.17 | 0.00 | 86 | 1015.5 |
| 20260505171506 | 51 | 84 | 0.0 | 2.6 | 0.00 | 0.17 | 0.00 | 87 | 1015.5 |
| 20260505171004 | 51 | 114 | 1.7 | 2.6 | 0.00 | 0.17 | 0.00 | 87 | 1015.5 |
| 20260505170504 | 51 | 184 | 0.9 | 1.7 | 0.00 | 0.17 | 0.00 | 88 | 1015.5 |
| 20260505170013 | 50 | 223 | 0.0 | 2.6 | 0.00 | 0.17 | 0.00 | 88 | 1015.5 |
| 20260505165505 | 50 | 225 | 0.9 | 2.6 | 0.00 | 0.17 | 0.00 | 89 | 1015.5 |
| 20260505165002 | 50 | 236 | 0.9 | 2.6 | 0.00 | 0.17 | 0.00 | 90 | 1015.5 |
| 20260505164503 | 49 | 211 | 0.0 | 2.6 | 0.00 | 0.17 | 0.00 | 92 | 1015.5 |
| 20260505164003 | 49 | 211 | 0.9 | 1.7 | 0.00 | 0.17 | 0.00 | 92 | 1015.5 |
| 20260505163504 | 48 | 236 | 0.0 | 1.7 | 0.00 | 0.17 | 0.00 | 92 | 1015.4 |
| 20260505163004 | 48 | 243 | 0.0 | 1.7 | 0.00 | 0.17 | 0.00 | 93 | 1015.4 |
| 20260505162503 | 47 | 294 | 0.0 | 2.6 | 0.00 | 0.17 | 0.00 | 93 | 1015.4 |
| 20260505162002 | 47 | 290 | 0.9 | 2.6 | 0.00 | 0.17 | 0.00 | 92 | 1015.4 |
| 20260505161506 | 47 | 251 | 0.9 | 2.6 | 0.00 | 0.17 | 0.00 | 93 | 1015.4 |
| 20260505161003 | 47 | 244 | 0.0 | 1.7 | 0.00 | 0.17 | 0.00 | 93 | 1015.3 |
| 20260505160503 | 46 | 263 | 0.0 | 1.7 | 0.00 | 0.17 | 0.00 | 93 | 1015.4 |
| 20260505153004 | 46 | 275 | 0.0 | 1.7 | 0.00 | 0.17 | 0.00 | 93 | 1015.3 |
| 20260505152503 | 46 | 313 | 0.0 | 2.6 | 0.00 | 0.17 | 0.00 | 93 | 1015.2 |
| 20260505152005 | 46 | 316 | 0.9 | 2.6 | 0.00 | 0.17 | 0.00 | 93 | 1015.1 |
| 20260505151504 | 46 | 265 | 0.0 | 1.7 | 0.00 | 0.17 | 0.00 | 93 | 1015.1 |